Weather observations for the past three days for
Childress, Childress Municipal Airport
Metric (Imperial)
Date Time (cdt) Wind (kph) Vis. (km) Weather Sky Cond. Temperature (ºC) Relative Humidity Wind Chill (°C) Heat Index (°C) Pressure Precipitation (cm)
Air Dwpt 6 hour altimeter (cm) sea level (mb) 1 hr 3 hr 6 hr
Max. Min.
15 17:53 SW 24 G 37 16.09 Fair CLR 39.4 14.4 23% 39 75.84 1007.6
15 16:53 S 24 G 48 16.09 Fair CLR 39.4 15.6 24% 40 75.87 1008.0
15 15:53 SW 33 G 48 16.09 Fair and Breezy CLR 40 15.6 24% 41 75.92 1008.7
15 14:53 SW 24 G 39 16.09 Fair CLR 39.4 15.6 24% 40 76 1009.6
15 13:53 S 19 G 43 16.09 Fair CLR 38.9 16.7 27% 40 76.02 1010.2
15 12:53 SW 24 G 44 16.09 Fair CLR 37.8 17.2 37.8 23.3 30% 39 76.07 1010.9
15 11:53 SW 28 G 46 16.09 Fair CLR 36.1 18.3 35% 38 76.15 1011.6
15 10:53 SW 28 16.09 Fair CLR 33.9 18.9 41% 36 76.2 1012.4
15 09:53 SW 24 11.27 Fair CLR 31.1 19.4 50% 33 76.25 1013.2
15 08:53 W 22 16.09 Fair CLR 28.3 18.9 57% 30 76.25 1013.3
15 07:53 SW 7 16.09 Fair CLR 25 18.3 66% 26 76.23 1012.9
15 06:53 W 11 16.09 Fair CLR 24.4 17.8 28.3 24.4 67% 25 76.2 1012.5
15 05:53 SW 20 16.09 Fair CLR 26.1 17.2 58% 27 76.12 1011.5
15 04:53 S 19 16.09 Fair CLR 26.1 17.2 58% 27 76.1 1011.3
15 03:53 S 19 16.09 Fair CLR 26.7 17.2 56% 27 76.1 1011.1
15 02:53 S 13 16.09 Fair CLR 26.1 17.2 58% 27 76.15 1011.8
15 01:53 S 13 16.09 Fair CLR 27.2 17.2 54% 28 76.2 1012.5
15 00:53 S 13 16.09 Fair CLR 28.3 16.7 36.7 28.3 49% 29 76.2 1012.5
14 23:53 S 15 16.09 Fair CLR 29.4 16.7 46% 30 76.17 1012.3
14 22:53 S 15 16.09 Fair CLR 30 16.7 45% 30 76.15 1012.0
14 21:53 SE 13 16.09 Fair CLR 31.1 15 38% 31 76.12 1011.8
14 20:53 S 15 16.09 Fair CLR 33.3 15 33% 33 76.12 1011.5
14 19:53 S 17 16.09 Fair CLR 35.6 13.3 26% 35 76.1 1011.4
14 18:53 S 17 G 31 16.09 Fair CLR 36.7 13.3 38.3 35.6 24% 36 76.1 1011.3
14 17:53 S 15 16.09 Fair CLR 37.2 14.4 26% 37 76.12 1011.6
14 16:53 Vrbl 9 G 33 16.09 Fair CLR 37.8 15 26% 38 76.17 1012.2
14 15:53 S 15 G 35 16.09 Fair CLR 37.8 15 26% 38 76.23 1012.9
14 14:53 S 20 G 41 16.09 Fair CLR 37.2 15.6 28% 37 76.25 1013.4
14 13:53 S 20 G 37 16.09 Fair CLR 36.7 16.7 31% 37 76.33 1014.2
14 12:53 SW 20 G 39 16.09 Fair CLR 35.6 18.3 35.6 23.9 36% 37 76.38 1015.1
14 11:53 S 17 G 37 16.09 Fair CLR 34.4 19.4 41% 36 76.45 1015.8
14 10:53 SW 22 G 33 16.09 Fair CLR 32.2 19.4 47% 34 76.48 1016.4
14 09:53 SW 24 16.09 Fair CLR 30 19.4 53% 32 76.5 1016.6
14 08:53 SW 26 16.09 Fair CLR 28.3 18.9 57% 30 76.5 1016.7
14 07:53 SW 17 16.09 Fair CLR 26.1 18.3 62% 27 76.48 1016.3
14 06:53 SW 13 16.09 Fair CLR 25 17.8 28.3 25 64% 26 76.45 1015.9
14 05:53 SW 20 16.09 Fair CLR 25 17.2 62% 26 76.38 1015.0
14 04:53 S 15 16.09 Fair CLR 25 17.8 64% 26 76.35 1014.8
14 03:53 S 17 16.09 Fair CLR 25.6 18.3 64% 27 76.35 1014.5
14 02:53 S 17 16.09 Fair CLR 26.1 18.3 62% 27 76.35 1014.8
14 01:53 S 17 16.09 Fair CLR 27.8 17.8 55% 29 76.4 1015.4
14 00:53 S 20 16.09 Fair CLR 28.3 17.8 36.1 27.8 53% 29 76.43 1015.5
13 23:53 S 17 16.09 Fair CLR 28.3 18.3 55% 29 76.4 1015.5
13 22:53 SE 17 16.09 Fair CLR 30 17.2 46% 30 76.4 1015.4
13 21:53 S 15 16.09 Fair CLR 31.1 15 38% 31 76.35 1014.9
13 20:53 S 17 16.09 Fair CLR 32.8 13.9 32% 32 76.33 1014.5
13 19:53 S 24 G 33 16.09 Fair CLR 35 13.9 28% 34 76.3 1014.1
13 18:53 S 17 G 39 16.09 Fair CLR 36.1 14.4 37.8 35.6 27% 36 76.28 1013.8
13 17:53 SE 19 G 33 16.09 Fair CLR 36.7 14.4 26% 36 76.3 1014.1
13 16:53 Calm 16.09 Fair CLR 37.2 12.8 23% 36 76.33 1014.4
13 15:53 S 9 G 31 16.09 Fair CLR 37.2 11.7 21% 36 76.38 1014.9
13 14:53 S 17 G 35 16.09 Fair CLR 37.2 11.1 21% 36 76.4 1015.3
13 13:53 SE 11 G 31 16.09 Fair CLR 36.7 12.2 23% 36 76.43 1015.8
13 12:53 S 19 G 31 16.09 Fair CLR 36.1 13.9 36.1 21.1 26% 35 76.48 1016.3
13 11:53 SW 9 16.09 Fair CLR 33.9 17.2 37% 35 76.5 1016.8
13 10:53 SW 11 16.09 Fair CLR 31.1 18.3 46% 32 76.53 1017.1
13 09:53 SW 19 16.09 Fair CLR 28.9 18.3 53% 30 76.56 1017.4
13 08:53 S 19 16.09 Fair CLR 25.6 18.9 67% 27 76.56 1017.5
13 07:53 S 9 16.09 Fair CLR 22.8 17.8 74% 76.56 1017.6
13 06:53 S 11 16.09 Fair CLR 21.1 17.2 27.8 21.1 79% 76.48 1016.6
13 05:53 S 13 16.09 Fair CLR 22.2 16.7 71% 76.43 1016.1
13 04:53 S 15 16.09 Fair CLR 23.3 17.2 69% 76.4 1015.3
13 03:53 S 15 16.09 Fair CLR 24.4 17.2 64% 25 76.4 1015.5
13 02:53 S 19 16.09 Fair CLR 25.6 17.2 60% 27 76.43 1015.5
13 01:53 S 17 16.09 Fair CLR 26.1 16.7 56% 27 76.43 1015.6
13 00:53 S 20 16.09 Fair CLR 27.2 16.7 36.1 27.2 53% 28 76.43 1015.7
12 23:53 S 17 16.09 Fair CLR 27.8 16.7 51% 28 76.43 1015.5
12 22:53 S 19 G 37 16.09 Fair CLR 29.4 16.1 45% 30 76.38 1015.1
12 21:53 S 20 G 33 16.09 Fair CLR 30.6 15.6 40% 30 76.33 1014.3
12 20:53 S 19 16.09 Fair CLR 32.2 15.6 37% 32 76.28 1013.9
12 19:53 S 26 G 41 16.09 Fair CLR 34.4 13.9 29% 34 76.25 1013.4
12 18:53 S 20 G 37 16.09 Fair CLR 36.1 13.3 38.9 36.1 25% 35 76.23 1013.0
Date Time (cdt) Wind (kph) Vis. (km) Weather Sky Cond. Air Dwpt Max. Min. Relative Humidity Wind Chill (°C) Heat Index (°C) altimeter (cm) sea level (mb) 1 hr 3 hr 6 hr
6 hour
Temperature (ºC) Pressure Precipitation (cm)